Weather in Psyzh

Russia / Karachay-Cherkess Republic     44°14′06″N   42°00′56″E
temp.,
°C
wind,
m/s
gust,
m/s
humid.,
%
clouds,
%
prec.,
mm/h
press.,
hPa
HPBL,
m
20 january, wed
wed2000:00−11s347928 0.0 102335
03:00−12w127142 0.0 102321
06:00−13sw127993 0.0 102421
09:00−11ssw227995 0.0 102435
12:00−6s017879 0.0 1024255
15:00−5wnw248287 0.0 1024658
18:00−9wnw2291100 0.1 102824
21:00−12ssw129283 0.1 102821
21 january, thu
thu2100:00−12ssw33820 0.0 103030
03:00−12sw33780 0.0 103030
06:00−12sw34730 0.0 103135
09:00−10ssw33740 0.0 103262
12:00−3sw23670 0.0 1031207
15:00−2sse01760 0.0 1030166
18:00−7se12680 0.0 103321
21:00−7s34660 0.0 103329
22 january, fri
fri2200:00−7s34630 0.0 103340
03:00−7ssw33610 0.0 103225
06:00−7s33610 0.0 103125
09:00−4s34640 0.0 103239
12:00+2sse12870 0.0 102937
15:00+2ese22770 0.0 102731
18:00−2se23620 0.0 102821
21:00−4s23570 0.0 102922
23 january, sat
sat2300:00−4s235942 0.0 102822
03:00−4s225458 0.0 102721
06:00−4s23547 0.0 102722
09:00−2s22584 0.0 102723
12:00+2se11860 0.0 102532
15:00+2se12780 0.0 102423
18:000s22640 0.0 102522
21:00−1s23610 0.0 102522
24 january, sun
sun2400:00−1s236114 0.0 102422
03:00−1ssw236022 0.0 102423
06:00−1s23580 0.0 102322
09:000sse23600 0.0 102324
12:00+4ese12804 0.0 102046
15:00+3ese22762 0.0 101937
18:00+1ese227083 0.0 102024
21:00+1se226488 0.0 101923